[[{"header":{"parameterUnit":"m.s-1","parameterCategory":1,"la1":30.2991,"la2":30.254,"lo1":-89.0895,"lo2":-89.0444,"dy":0.0017,"dx":0.0017,"nx":28,"ny":28,"refTime":"2025-01-30T03:00:00:Z","depth":0,"parameterNumber":2,"parameterNumberName":"U-component_of_WINDS"},"data":[0,0,0,0,0,0,0,0,0,0,0,0,0,0,0,0,0,0,0,0,0,0,0,0,0,0,0,0,0,0,0,0,0,0,0,0,0,0,0,0,0,0,0,0,0,0,0,0,0,0,0,0,0,0,0,0,0,0,2.9198,2.9197,0,2.9139,2.9138,2.9137,2.9083,2.9082,2.9081,2.9081,2.902,2.9019,2.9018,0,0,0,0,0,0,0,0,0,0,0,0,0,2.9269,2.9268,2.9198,2.9197,2.9197,2.9139,2.9138,2.9137,2.9083,2.9082,2.9081,2.908,2.902,2.9019,2.9018,0,0,0,0,0,0,0,0,0,0,0,0,0,2.9227,2.9268,2.9198,2.9163,2.9159,2.9139,2.9138,2.9137,2.9083,2.9082,2.9081,2.908,2.9021,2.9019,2.9018,2.9029,0,0,2.9013,2.9013,0,0,0,0,0,0,0,0,2.9229,2.9224,2.9169,2.9165,2.9161,2.9117,2.9141,2.9101,2.9083,2.9112,2.9081,2.908,2.9053,2.9049,2.904,2.9026,2.9023,2.9013,2.9012,2.9012,2.9011,0,0,0,0,0,0,0,2.9232,2.9226,2.9175,2.9168,2.9163,2.9151,2.9144,2.9133,2.9089,2.9109,2.9105,2.9099,2.9051,2.9042,2.9038,2.9022,2.9013,2.9012,2.9011,2.901,2.9019,2.902,0,0,0,0,0,0,2.924,2.9229,2.9176,2.9173,2.9193,2.915,2.9142,2.9132,2.9089,2.9081,2.91,2.9096,2.9045,2.904,2.9036,2.9048,2.9012,2.901,2.9009,2.9018,2.9019,2.9021,0,0,0,0,0,0,2.9242,2.9236,2.9179,2.92,2.9192,2.915,2.9139,2.9131,2.9122,2.9082,2.9074,2.9098,2.9044,2.9038,2.9032,2.9045,2.901,2.9008,2.9017,2.9019,2.902,2.9071,0,0,0,0,0,0,2.9244,2.9237,2.9239,2.92,2.9191,2.9175,2.914,2.9131,2.9119,2.9115,2.9078,2.9071,2.9042,2.9034,2.9031,2.9043,2.9007,2.9015,2.9018,2.902,2.9068,2.9075,2.908,0,0,0,0,0,2.9247,2.9255,2.9239,2.9233,2.9193,2.9175,2.917,2.9137,2.9121,2.9124,2.9099,2.9072,2.9045,2.9034,2.9029,2.9041,2.9014,2.9017,2.9019,2.9066,2.9073,2.908,0,0,0,0,0,0,2.9295,2.9249,2.9231,2.9227,2.9206,2.9166,2.9168,2.9146,2.9128,2.9124,2.9085,2.9077,2.9076,2.9058,2.9047,2.9052,2.9026,2.9028,2.9063,2.907,2.9076,2.908,2.9006,0,0,0,0,0,2.9305,2.9294,2.9255,2.9255,2.9246,2.9209,2.92,2.9178,2.9154,2.9144,2.9119,2.9097,2.9085,2.9076,2.9062,2.9066,2.9059,2.9073,2.9079,2.9084,2.9085,2.909,2.9096,2.9029,2.9029,2.9029,0,0,2.9325,2.9299,2.9294,2.9264,2.9245,2.9236,2.9202,2.9193,2.9187,2.9143,2.9136,2.9118,2.9092,2.9092,2.9091,2.9077,2.9103,2.9087,2.9091,2.909,2.9093,2.91,2.9106,2.9031,2.903,2.903,0,0,2.9358,2.9337,2.9336,2.9319,2.9291,2.9268,2.9268,2.9234,2.922,2.9213,2.9181,2.9174,2.9152,2.9136,2.9125,2.9159,2.9135,2.9155,2.9185,2.9191,2.9196,2.9201,2.9215,2.922,2.9157,2.9158,2.9158,0,2.9387,2.9371,2.9338,2.9333,2.9322,2.9285,2.9285,2.927,2.9239,2.9233,2.9219,2.9193,2.9173,2.917,2.918,2.9171,2.9172,2.9158,2.9198,2.9202,2.9206,2.9219,2.9224,2.916,2.916,2.916,2.9159,0,2.941,2.94,2.9404,2.9377,2.9366,2.9364,2.9332,2.9326,2.9306,2.9285,2.9281,2.9257,2.9238,2.9236,2.9215,2.9233,2.9225,2.9205,2.9178,2.9216,2.9227,2.9232,2.9164,2.9163,2.9162,2.9162,0,0,2.9466,2.9425,2.9427,2.9416,2.9386,2.9379,2.9377,2.936,2.9357,2.9339,2.9337,2.9322,2.9305,2.9293,2.927,2.9275,2.9307,2.9254,2.9253,2.9266,2.9328,2.9344,2.935,2.9292,2.9293,2.9294,2.9331,0,2.9495,2.9488,2.9461,2.9463,2.9456,2.9423,2.9422,2.9405,2.9387,2.938,2.936,2.9351,2.9327,2.932,2.9324,2.9303,2.9319,2.93,2.9292,2.9292,2.9299,2.9356,2.9371,2.9407,2.9335,2.9336,2.9336,0,2.9525,2.9511,2.9513,2.9488,2.9484,2.9483,2.9468,2.9461,2.9443,2.943,2.9419,2.9396,2.9395,2.9371,2.937,2.9358,2.9354,2.9344,2.9345,2.9342,2.9316,2.9355,2.9417,2.9423,2.9343,2.9342,2.9342,0,2.9569,2.955,2.955,2.9542,2.9512,2.9513,2.95,2.9481,2.9474,2.9462,2.9458,2.9446,2.9439,2.9431,2.9406,2.9391,2.941,2.9383,2.94,2.9401,2.9404,2.9404,2.9467,2.9402,2.9402,2.9402,2.9401,0,2.9603,2.9605,2.957,2.9569,2.9573,2.9544,2.9549,2.9534,2.9518,2.9516,2.9487,2.9486,2.9453,2.945,2.943,2.9435,2.9431,2.9422,2.9417,2.9424,2.9426,2.942,2.9417,2.9403,2.9403,2.9402,2.9402,0,2.965,2.9626,2.9624,2.9598,2.9592,2.9596,2.9574,2.9574,2.9556,2.9554,2.9552,2.9525,2.952,2.9495,2.9483,2.947,2.9481,2.9471,2.9487,2.9484,2.9503,2.9502,2.9564,2.9572,2.9502,2.9503,2.9503,0,2.9673,2.9675,2.965,2.9647,2.9637,2.9632,2.9626,2.9599,2.9595,2.9577,2.958,2.9573,2.9565,2.9559,2.9538,2.953,2.952,2.9543,2.9518,2.9527,2.9522,2.9522,2.9523,2.9547,2.9548,2.9549,2.9549,0,2.9717,2.9706,2.9699,2.9689,2.9684,2.9675,2.9664,2.9663,2.9634,2.9631,2.9626,2.962,2.9611,2.9604,2.9594,2.9583,2.9562,2.9558,2.9562,2.9569,2.9579,2.9575,2.9502,2.9556,2.9555,2.9555,2.9554,2.9554,2.9753,2.9755,2.9739,2.9733,2.9723,2.9715,2.9715,2.97,2.9695,2.9685,2.967,2.9668,2.9655,2.9639,2.963,2.9629,2.9617,2.9622,2.9623,2.9625,2.963,2.958,2.9627,2.9627,2.9627,2.9627,2.9626,0,2.9796,2.9786,2.9781,2.9769,2.9765,2.9748,2.9737,2.9735,2.9734,2.9723,2.9718,2.9714,2.971,2.9692,2.9686,2.9689,2.968,2.9688,2.9688,2.9686,2.964,2.9638,2.9696,2.9696,2.9696,2.9696,2.9696,2.9696,2.9818,2.9822,2.9811,2.981,2.98,2.9798,2.9794,2.9787,2.9779,2.9777,2.9773,2.9762,2.975,2.9744,2.974,2.9735,2.9734,2.9747,2.9739,2.9695,2.9689,2.9682,2.968,2.9747,2.9747,2.9785,2.9785,2.9785]},{"header":{"parameterUnit":"m.s-1","parameterCategory":1,"la1":30.2991,"la2":30.254,"lo1":-89.0895,"lo2":-89.0444,"dy":0.0017,"dx":0.0017,"nx":28,"ny":28,"refTime":"2025-01-30T03:00:00:Z","depth":0,"parameterNumber":3,"parameterNumberName":"V-component_of_WINDS"},"data":[0,0,0,0,0,0,0,0,0,0,0,0,0,0,0,0,0,0,0,0,0,0,0,0,0,0,0,0,0,0,0,0,0,0,0,0,0,0,0,0,0,0,0,0,0,0,0,0,0,0,0,0,0,0,0,0,0,0,2.8282,2.8284,0,2.8475,2.8477,2.8479,2.8519,2.8518,2.8517,2.8515,2.8713,2.872,2.8726,0,0,0,0,0,0,0,0,0,0,0,0,0,2.7947,2.7953,2.8282,2.8284,2.8286,2.8474,2.8477,2.848,2.852,2.8518,2.8516,2.8515,2.8711,2.8719,2.8727,0,0,0,0,0,0,0,0,0,0,0,0,0,2.8112,2.7955,2.8281,2.8329,2.8335,2.8474,2.8477,2.848,2.852,2.8518,2.8516,2.8514,2.8708,2.8718,2.8728,2.8832,0,0,2.8758,2.8762,0,0,0,0,0,0,0,0,2.8102,2.8124,2.832,2.8326,2.8333,2.8471,2.8432,2.8598,2.8521,2.845,2.8515,2.8513,2.8634,2.865,2.8691,2.8842,2.885,2.8759,2.8765,2.8769,2.8772,0,0,0,0,0,0,0,2.8091,2.8116,2.8358,2.8322,2.8331,2.8341,2.8362,2.8464,2.8552,2.8456,2.8459,2.8482,2.8638,2.8681,2.8696,2.8853,2.8759,2.8768,2.8774,2.8778,2.91,2.9103,0,0,0,0,0,0,2.8071,2.8106,2.8352,2.8364,2.821,2.8349,2.8372,2.8429,2.8551,2.8567,2.8483,2.8483,2.8666,2.8684,2.8703,2.8835,2.8769,2.8778,2.8784,2.9098,2.9101,2.9104,0,0,0,0,0,0,2.8064,2.8093,2.8344,2.8236,2.8269,2.8357,2.842,2.8434,2.8478,2.8572,2.8587,2.8512,2.8665,2.8689,2.88,2.8842,2.8783,2.8792,2.9095,2.9099,2.9102,2.9098,0,0,0,0,0,0,2.8054,2.809,2.813,2.8237,2.8274,2.8438,2.8423,2.8439,2.8495,2.8496,2.8603,2.8618,2.8665,2.8785,2.881,2.8855,2.88,2.9091,2.9096,2.9101,2.9095,2.9102,2.9107,0,0,0,0,0,2.8042,2.8121,2.8132,2.8162,2.8327,2.844,2.8462,2.8514,2.8498,2.854,2.86,2.8615,2.8833,2.8796,2.8825,2.8873,2.9089,2.9095,2.9101,2.9092,2.91,2.9107,0,0,0,0,0,0,2.8018,2.8136,2.815,2.8266,2.8343,2.8447,2.8501,2.852,2.8603,2.8601,2.8662,2.8685,2.8793,2.8844,2.8801,2.8981,2.896,2.8972,2.8944,2.8953,2.8958,2.8945,2.8808,0,0,0,0,0,2.8026,2.8108,2.8207,2.83,2.8338,2.8413,2.8464,2.8497,2.8579,2.8612,2.868,2.8759,2.8846,2.8902,2.8987,2.9102,2.9126,2.9149,2.9155,2.916,2.917,2.9236,2.9247,2.9123,2.9123,2.9123,0,0,2.8044,2.8119,2.8167,2.8297,2.8361,2.8445,2.844,2.8529,2.8592,2.8626,2.8735,2.8788,2.888,2.8994,2.9047,2.904,2.9209,2.9167,2.917,2.9178,2.9243,2.9254,2.9265,2.9127,2.9126,2.9126,0,0,2.812,2.8184,2.827,2.8333,2.8429,2.8479,2.8499,2.86,2.8637,2.8747,2.8775,2.885,2.8998,2.9063,2.9115,2.9215,2.9232,2.9241,2.9273,2.9336,2.9346,2.9355,2.9392,2.9405,2.925,2.925,2.925,0,2.813,2.8258,2.8311,2.8399,2.8456,2.849,2.8577,2.8636,2.8755,2.8793,2.8782,2.8969,2.9033,2.9163,2.9187,2.9228,2.9254,2.923,2.934,2.935,2.9359,2.9395,2.9409,2.9251,2.9251,2.9251,2.925,0,2.8267,2.8354,2.8412,2.8526,2.8589,2.8676,2.8742,2.8799,2.8826,2.8877,2.8989,2.9067,2.9169,2.9202,2.923,2.9336,2.9329,2.9328,2.9309,2.9371,2.9406,2.942,2.9251,2.9251,2.9251,2.9251,0,0,2.8334,2.8476,2.8496,2.8549,2.8657,2.8727,2.8815,2.8914,2.8963,2.9043,2.9119,2.9243,2.9244,2.9303,2.9338,2.9393,2.9469,2.9387,2.939,2.9401,2.9593,2.9594,2.9609,2.948,2.9483,2.9485,2.9586,0,2.8424,2.8584,2.8634,2.8767,2.8849,2.8883,2.896,2.9035,2.9084,2.9161,2.9215,2.9302,2.9296,2.9332,2.9388,2.9448,2.9509,2.9441,2.9553,2.9556,2.953,2.9627,2.9628,2.9719,2.96,2.9602,2.9604,0,2.8551,2.8634,2.8776,2.8874,2.8911,2.8979,2.9075,2.9147,2.9233,2.9265,2.9331,2.9361,2.9455,2.9429,2.9559,2.9512,2.956,2.9597,2.9601,2.9615,2.9585,2.9645,2.9749,2.9763,2.9625,2.9624,2.9622,0,2.8588,2.8735,2.8839,2.8883,2.9,2.9047,2.9098,2.9182,2.9238,2.9321,2.9359,2.9451,2.9503,2.9574,2.9629,2.9604,2.9755,2.9733,2.9785,2.9783,2.9816,2.9814,2.9931,2.9844,2.9844,2.9844,2.9844,0,2.8684,2.877,2.8857,2.8921,2.9018,2.9075,2.9169,2.9222,2.9296,2.9371,2.9404,2.9474,2.9541,2.962,2.9663,2.9766,2.9788,2.9817,2.9828,2.9815,2.9812,2.9849,2.9845,2.9848,2.9847,2.9846,2.9845,0,2.8743,2.8804,2.892,2.9021,2.9049,2.9116,2.9203,2.9267,2.9316,2.9411,2.9437,2.9515,2.961,2.9671,2.9791,2.982,2.9932,2.994,2.9904,2.9909,2.9958,2.9953,3.0106,3.0129,3.0024,3.0025,3.0026,0,2.8801,2.8868,2.8976,2.9029,2.9081,2.9165,2.9223,2.9281,2.934,2.9443,2.9494,2.9591,2.9671,2.982,2.9888,2.9981,2.9992,3.0039,3.0007,2.9992,2.9995,2.9991,2.9999,3.0045,3.0046,3.0047,3.0047,0,2.8898,2.8926,2.9008,2.9102,2.917,2.9247,2.9323,2.9364,2.9435,2.95,2.9597,2.966,2.9782,2.9878,2.9977,3.0029,3.0051,3.0057,3.0074,3.0063,3.0039,3.0054,2.992,3.0053,3.0053,3.0052,3.0052,3.0052,2.896,2.9021,2.9107,2.9198,2.9262,2.9333,2.9398,2.9456,2.9538,2.9643,2.9672,2.9773,2.9857,2.9992,3.0046,3.0126,3.0121,3.0145,3.0152,3.0158,3.0159,3.0025,3.0144,3.0144,3.0144,3.0144,3.0144,0,2.906,2.9117,2.92,2.9307,2.9378,2.9391,2.9477,2.9536,2.9625,2.9702,2.978,2.9892,2.9985,3.006,3.0156,3.0206,3.0219,3.023,3.0228,3.024,3.0158,3.0134,3.0218,3.0218,3.0218,3.0218,3.0218,3.0218,2.9121,2.9226,2.9263,2.94,2.9457,2.9557,2.9604,2.967,2.9732,2.9855,2.9933,2.9981,3.0058,3.0159,3.0245,3.0265,3.03,3.0309,3.0331,3.0253,3.0245,3.0237,3.0216,3.0316,3.0316,3.0406,3.0407,3.0408]}]]